Location: Helsinki
(60.1699°N, 24.9384°E)
Time: 20:20:48
(UTC+02:00)

Transit 4A - Pass Details

Date: 01 November 2020
Orbit: 862 x 982 km, 66.8° (Epoch: 29 November)

Event Time Altitude Azimuth Distance (km) Brightness Sun altitude
Rises 21:32:44 0° 306° (NW) 3,693 12.0 -37.0°
Reaches altitude 10° 21:35:19 10° 307° (NW) 2,747 11.1 -37.2°
Enters shadow 21:39:27 43° 312° (NW) 1,364 9.0 -37.6°
Maximum altitude 21:41:48 85° 36° (NE) 994 - -37.8°
Drops below altitude 10° 21:48:12 10° 127° (SE) 2,714 - -38.3°
Sets 21:50:44 0° 128° (SE) 3,647 - -38.6°
